| time (UTC) | temp F | wind direction | speed knots | gust knots | rain 1hr in | rain 24hr in | rain mn in | humidity % | barometer mb |
| 20260505101904 | 59 | 108 | 2.6 | 6.1 | 0.01 | 0.21 | 0.10 | 86 | 1011.6 |
| 20260505100404 | 60 | 139 | 0.9 | 7.8 | 0.00 | 0.20 | 0.09 | 85 | 1012.4 |
| 20260505095903 | 60 | 173 | 0.9 | 10.4 | 0.00 | 0.20 | 0.09 | 85 | 1012.2 |
| 20260505094903 | 60 | 150 | 1.7 | 10.4 | 0.01 | 0.20 | 0.09 | 85 | 1012.1 |
| 20260505094403 | 60 | 104 | 3.5 | 12.2 | 0.01 | 0.20 | 0.09 | 85 | 1011.9 |
| 20260505093904 | 60 | 159 | 3.5 | 12.2 | 0.01 | 0.20 | 0.09 | 85 | 1011.8 |
| 20260505093404 | 60 | 114 | 5.2 | 12.2 | 0.01 | 0.20 | 0.09 | 85 | 1011.8 |
| 20260505092903 | 60 | 137 | 1.7 | 8.7 | 0.01 | 0.20 | 0.09 | 85 | 1012.2 |
| 20260505091904 | 60 | 190 | 1.7 | 7.0 | 0.03 | 0.20 | 0.09 | 84 | 1012.2 |
| 20260505091404 | 60 | 101 | 2.6 | 7.0 | 0.03 | 0.20 | 0.09 | 84 | 1012.2 |
| 20260505090903 | 60 | 105 | 2.6 | 7.8 | 0.04 | 0.20 | 0.09 | 85 | 1012.1 |
| 20260505090404 | 60 | 112 | 1.7 | 7.8 | 0.04 | 0.20 | 0.09 | 85 | 1012.1 |
| 20260505084404 | 59 | 99 | 1.7 | 7.0 | 0.04 | 0.19 | 0.08 | 86 | 1012.5 |
| 20260505083904 | 59 | 106 | 1.7 | 7.0 | 0.05 | 0.19 | 0.08 | 86 | 1012.5 |
| 20260505083403 | 59 | 110 | 3.5 | 7.0 | 0.05 | 0.19 | 0.08 | 87 | 1012.8 |
| 20260505082904 | 59 | 125 | 2.6 | 7.0 | 0.06 | 0.19 | 0.08 | 87 | 1013.2 |
| 20260505081403 | 60 | 116 | 1.7 | 7.0 | 0.05 | 0.17 | 0.06 | 86 | 1013.7 |
| 20260505080904 | 60 | 94 | 1.7 | 7.0 | 0.04 | 0.16 | 0.05 | 86 | 1013.7 |
| 20260505080404 | 60 | 122 | 2.6 | 7.0 | 0.04 | 0.16 | 0.05 | 86 | 1014.0 |
| 20260505075904 | 60 | 114 | 1.7 | 6.1 | 0.05 | 0.16 | 0.05 | 87 | 1014.1 |
| 20260505075403 | 60 | 119 | 1.7 | 6.1 | 0.04 | 0.15 | 0.04 | 87 | 1014.4 |
| 20260505074904 | 60 | 117 | 0.9 | 6.1 | 0.05 | 0.15 | 0.04 | 87 | 1014.4 |
| 20260505074404 | 60 | 138 | 1.7 | 6.1 | 0.05 | 0.15 | 0.04 | 87 | 1014.2 |
| 20260505073904 | 60 | 134 | 1.7 | 7.0 | 0.04 | 0.14 | 0.03 | 87 | 1014.2 |
| 20260505072904 | 60 | 113 | 1.7 | 5.2 | 0.04 | 0.13 | 0.02 | 87 | 1014.5 |
| 20260505072404 | 60 | 102 | 0.0 | 2.6 | 0.04 | 0.12 | 0.01 | 87 | 1014.6 |
| 20260505071404 | 60 | 119 | 0.9 | 1.7 | 0.04 | 0.12 | 0.01 | 87 | 1014.5 |
| 20260505070903 | 60 | 120 | 0.0 | 2.6 | 0.04 | 0.12 | 0.01 | 86 | 1014.4 |
| 20260505070403 | 60 | 119 | 0.9 | 2.6 | 0.04 | 0.12 | 0.01 | 86 | 1014.2 |
| 20260505065404 | 60 | 113 | 0.9 | 2.6 | 0.03 | 0.11 | 0.11 | 86 | 1014.4 |
| 20260505064903 | 60 | 110 | 0.0 | 0.9 | 0.03 | 0.10 | 0.10 | 87 | 1014.6 |
| 20260505064404 | 60 | 110 | 0.0 | 1.7 | 0.03 | 0.10 | 0.10 | 86 | 1014.4 |
| 20260505063903 | 60 | 153 | 0.0 | 1.7 | 0.03 | 0.10 | 0.10 | 85 | 1014.4 |
| 20260505063403 | 61 | 175 | 0.0 | 0.9 | 0.02 | 0.09 | 0.09 | 84 | 1014.4 |
| 20260505062903 | 61 | 175 | 0.0 | 0.9 | 0.03 | 0.09 | 0.09 | 84 | 1014.3 |
| 20260505062403 | 61 | 183 | 0.0 | 0.9 | 0.02 | 0.08 | 0.08 | 83 | 1014.4 |
| 20260505061903 | 61 | 187 | 0.0 | 0.0 | 0.02 | 0.08 | 0.08 | 84 | 1014.5 |
| 20260505061403 | 61 | 187 | 0.0 | 0.0 | 0.02 | 0.08 | 0.08 | 83 | 1014.6 |
| 20260505060903 | 61 | 187 | 0.0 | 0.0 | 0.02 | 0.08 | 0.08 | 83 | 1014.6 |
| 20260505060403 | 61 | 187 | 0.0 | 0.0 | 0.02 | 0.08 | 0.08 | 82 | 1014.5 |
| 20260505055904 | 61 | 187 | 0.0 | 0.0 | 0.02 | 0.08 | 0.08 | 82 | 1014.5 |
| 20260505055404 | 61 | 187 | 0.0 | 2.6 | 0.02 | 0.08 | 0.08 | 81 | 1014.4 |
| 20260505054404 | 61 | 193 | 0.9 | 2.6 | 0.01 | 0.07 | 0.07 | 81 | 1014.2 |
| 20260505053904 | 60 | 219 | 0.9 | 1.7 | 0.01 | 0.07 | 0.07 | 81 | 1014.3 |
| 20260505053403 | 60 | 107 | 0.0 | 2.6 | 0.01 | 0.07 | 0.07 | 82 | 1014.2 |
| 20260505052904 | 60 | 73 | 0.9 | 2.6 | 0.00 | 0.06 | 0.06 | 81 | 1014.1 |
| 20260505052404 | 60 | 117 | 0.9 | 2.6 | 0.00 | 0.06 | 0.06 | 81 | 1014.2 |
| 20260505051904 | 60 | 93 | 0.9 | 2.6 | 0.01 | 0.06 | 0.06 | 83 | 1014.2 |
| 20260505051404 | 60 | 97 | 0.9 | 2.6 | 0.01 | 0.06 | 0.06 | 83 | 1014.1 |
| 20260505050903 | 59 | 101 | 0.0 | 1.7 | 0.01 | 0.06 | 0.06 | 84 | 1014.0 |
| 20260505040905 | 59 | 115 | 0.0 | 1.7 | 0.03 | 0.05 | 0.05 | 76 | 1014.3 |
| 20260505040403 | 60 | 187 | 0.0 | 1.7 | 0.02 | 0.04 | 0.04 | 72 | 1014.5 |
| 20260505035404 | 61 | 203 | 0.9 | 5.2 | 0.01 | 0.03 | 0.03 | 67 | 1014.6 |
| 20260505034903 | 62 | 158 | 1.7 | 5.2 | 0.00 | 0.02 | 0.02 | 62 | 1014.4 |
| 20260505034403 | 63 | 214 | 1.7 | 4.3 | 0.00 | 0.02 | 0.02 | 60 | 1014.3 |
| 20260505032904 | 63 | 230 | 0.9 | 2.6 | 0.00 | 0.02 | 0.02 | 59 | 1013.8 |
| 20260505032403 | 63 | 249 | 0.9 | 2.6 | 0.00 | 0.02 | 0.02 | 59 | 1013.5 |
| 20260505031904 | 63 | 161 | 0.9 | 6.1 | 0.00 | 0.02 | 0.02 | 58 | 1013.4 |
| 20260505031404 | 63 | 128 | 0.9 | 10.4 | 0.00 | 0.02 | 0.02 | 57 | 1013.0 |
| 20260505030905 | 64 | 104 | 4.3 | 11.3 | 0.00 | 0.02 | 0.02 | 55 | 1012.6 |
| 20260505025904 | 63 | 110 | 4.3 | 8.7 | 0.00 | 0.02 | 0.02 | 55 | 1012.8 |
| 20260505025403 | 63 | 120 | 3.5 | 8.7 | 0.01 | 0.02 | 0.02 | 55 | 1013.3 |
| 20260505024904 | 63 | 142 | 3.5 | 10.4 | 0.01 | 0.02 | 0.02 | 55 | 1013.4 |
| 20260505024404 | 63 | 105 | 2.6 | 10.4 | 0.01 | 0.02 | 0.02 | 56 | 1013.2 |
| 20260505023903 | 63 | 105 | 2.6 | 11.3 | 0.02 | 0.02 | 0.02 | 58 | 1013.1 |
| 20260505023404 | 63 | 110 | 4.3 | 11.3 | 0.02 | 0.02 | 0.02 | 60 | 1013.1 |
| 20260505022904 | 63 | 115 | 3.5 | 10.4 | 0.02 | 0.02 | 0.02 | 62 | 1012.9 |
| 20260505022404 | 62 | 114 | 3.5 | 10.4 | 0.02 | 0.02 | 0.02 | 64 | 1013.2 |
| 20260505021904 | 62 | 111 | 2.6 | 8.7 | 0.02 | 0.02 | 0.02 | 66 | 1013.4 |
| 20260505021404 | 63 | 102 | 0.9 | 5.2 | 0.02 | 0.02 | 0.02 | 66 | 1013.3 |
| 20260505020905 | 63 | 160 | 0.9 | 4.3 | 0.02 | 0.02 | 0.02 | 63 | 1013.5 |
| 20260505015403 | 64 | 117 | 0.9 | 2.6 | 0.01 | 0.01 | 0.01 | 59 | 1014.0 |
| 20260505014903 | 65 | 308 | 0.9 | 1.7 | 0.01 | 0.01 | 0.01 | 56 | 1014.0 |
| 20260505014405 | 65 | 282 | 0.0 | 1.7 | 0.01 | 0.01 | 0.01 | 53 | 1014.0 |
| 20260505013903 | 66 | 265 | 0.9 | 1.7 | 0.00 | 0.00 | 0.00 | 53 | 1014.0 |
| 20260505013404 | 67 | 244 | 0.0 | 0.9 | 0.00 | 0.00 | 0.00 | 53 | 1013.9 |
| 20260505012903 | 67 | 244 | 0.0 | 2.6 | 0.00 | 0.00 | 0.00 | 49 | 1014.0 |
| 20260505011404 | 67 | 192 | 0.9 | 2.6 | 0.00 | 0.00 | 0.00 | 44 | 1013.5 |
| 20260505010903 | 67 | 198 | 0.9 | 4.3 | 0.00 | 0.00 | 0.00 | 45 | 1013.5 |
| 20260505005904 | 67 | 142 | 1.7 | 5.2 | 0.00 | 0.00 | 0.00 | 45 | 1013.3 |
| 20260505005404 | 67 | 179 | 2.6 | 5.2 | 0.00 | 0.00 | 0.00 | 45 | 1013.4 |
| 20260505004903 | 68 | 188 | 2.6 | 5.2 | 0.00 | 0.00 | 0.00 | 45 | 1013.6 |
| 20260505004404 | 69 | 189 | 2.6 | 6.1 | 0.00 | 0.00 | 0.00 | 42 | 1013.6 |
| 20260505003403 | 70 | 199 | 2.6 | 7.8 | 0.00 | 0.00 | 0.00 | 38 | 1013.3 |
| 20260505002903 | 70 | 197 | 1.7 | 7.0 | 0.00 | 0.00 | 0.00 | 38 | 1013.2 |
| 20260505002403 | 71 | 220 | 1.7 | 7.0 | 0.00 | 0.00 | 0.00 | 38 | 1013.4 |
| 20260505001904 | 71 | 193 | 2.6 | 7.0 | 0.00 | 0.00 | 0.00 | 37 | 1013.3 |
| 20260505001403 | 71 | 183 | 3.5 | 7.0 | 0.00 | 0.00 | 0.00 | 36 | 1013.2 |
| 20260505000904 | 72 | 209 | 1.7 | 10.4 | 0.00 | 0.00 | 0.00 | 36 | 1013.1 |
| 20260505000405 | 72 | 201 | 1.7 | 10.4 | 0.00 | 0.00 | 0.00 | 36 | 1013.0 |
| 20260504235904 | 72 | 197 | 2.6 | 10.4 | 0.00 | 0.00 | 0.00 | 36 | 1013.0 |
| 20260504235404 | 72 | 205 | 1.7 | 4.3 | 0.00 | 0.00 | 0.00 | 36 | 1012.8 |
| 20260504234904 | 72 | 186 | 0.9 | 2.6 | 0.00 | 0.00 | 0.00 | 37 | 1012.5 |
| 20260504234403 | 73 | 215 | 0.9 | 2.6 | 0.00 | 0.00 | 0.00 | 37 | 1012.6 |
| 20260504233903 | 73 | 151 | 0.9 | 2.6 | 0.00 | 0.00 | 0.00 | 35 | 1012.5 |
| 20260504233404 | 73 | 65 | 1.7 | 7.8 | 0.00 | 0.00 | 0.00 | 39 | 1012.5 |
| 20260504232904 | 73 | 266 | 1.7 | 7.8 | 0.00 | 0.00 | 0.00 | 38 | 1012.8 |
| 20260504232404 | 73 | 22 | 1.7 | 7.8 | 0.00 | 0.00 | 0.00 | 39 | 1012.9 |
| 20260504231903 | 74 | 60 | 1.7 | 5.2 | 0.00 | 0.00 | 0.00 | 37 | 1013.1 |
| 20260504231404 | 75 | 346 | 0.9 | 10.4 | 0.00 | 0.00 | 0.00 | 34 | 1013.3 |
| 20260504230403 | 76 | 185 | 4.3 | 10.4 | 0.00 | 0.00 | 0.00 | 31 | 1013.3 |
| 20260504225903 | 78 | 235 | 5.2 | 11.3 | 0.00 | 0.00 | 0.00 | 25 | 1013.3 |
| 20260504225404 | 78 | 231 | 2.6 | 11.3 | 0.00 | 0.00 | 0.00 | 24 | 1013.1 |
| 20260504224904 | 79 | 233 | 4.3 | 10.4 | 0.00 | 0.00 | 0.00 | 22 | 1012.8 |
| 20260504224404 | 79 | 227 | 4.3 | 10.4 | 0.00 | 0.00 | 0.00 | 21 | 1012.7 |
| 20260504223903 | 79 | 232 | 4.3 | 8.7 | 0.00 | 0.00 | 0.00 | 20 | 1012.7 |
| 20260504223404 | 80 | 197 | 2.6 | 8.7 | 0.00 | 0.00 | 0.00 | 20 | 1012.6 |
| 20260504222903 | 80 | 259 | 2.6 | 10.4 | 0.00 | 0.00 | 0.00 | 20 | 1012.7 |
| 20260504222405 | 80 | 248 | 4.3 | 10.4 | 0.00 | 0.00 | 0.00 | 19 | 1012.6 |
| 20260504221904 | 81 | 229 | 2.6 | 7.8 | 0.00 | 0.00 | 0.00 | 19 | 1012.7 |
| 20260504221405 | 81 | 250 | 1.7 | 7.0 | 0.00 | 0.00 | 0.00 | 20 | 1012.6 |
| 20260504220903 | 81 | 224 | 2.6 | 7.0 | 0.00 | 0.00 | 0.00 | 19 | 1012.6 |
| 20260504220403 | 81 | 224 | 2.6 | 7.8 | 0.00 | 0.00 | 0.00 | 19 | 1012.6 |
| 20260504215904 | 81 | 247 | 2.6 | 7.8 | 0.00 | 0.00 | 0.00 | 19 | 1012.9 |
| 20260504215403 | 81 | 227 | 2.6 | 7.0 | 0.00 | 0.00 | 0.00 | 19 | 1013.0 |
| 20260504214904 | 82 | 231 | 2.6 | 7.8 | 0.00 | 0.00 | 0.00 | 18 | 1013.0 |
| 20260504214404 | 82 | 236 | 2.6 | 8.7 | 0.00 | 0.00 | 0.00 | 18 | 1012.8 |
| 20260504213903 | 82 | 222 | 2.6 | 8.7 | 0.00 | 0.00 | 0.00 | 18 | 1012.8 |
| 20260504213404 | 82 | 207 | 3.5 | 11.3 | 0.00 | 0.00 | 0.00 | 17 | 1012.7 |
| 20260504212903 | 82 | 205 | 2.6 | 11.3 | 0.00 | 0.00 | 0.00 | 17 | 1012.6 |
| 20260504212404 | 83 | 204 | 1.7 | 8.7 | 0.00 | 0.00 | 0.00 | 17 | 1012.6 |
| 20260504211404 | 83 | 240 | 2.6 | 7.8 | 0.00 | 0.00 | 0.00 | 18 | 1012.6 |
| 20260504210403 | 82 | 266 | 1.7 | 6.1 | 0.00 | 0.00 | 0.00 | 18 | 1012.5 |
| 20260504205903 | 82 | 218 | 2.6 | 7.0 | 0.00 | 0.00 | 0.00 | 18 | 1012.7 |
| 20260504205405 | 82 | 217 | 1.7 | 8.7 | 0.00 | 0.00 | 0.00 | 18 | 1012.8 |
| 20260504204403 | 83 | 207 | 1.7 | 5.2 | 0.00 | 0.00 | 0.00 | 18 | 1012.6 |
| 20260504203903 | 83 | 232 | 1.7 | 4.3 | 0.00 | 0.00 | 0.00 | 21 | 1012.7 |
| 20260504203403 | 82 | 90 | 0.9 | 6.1 | 0.00 | 0.00 | 0.00 | 21 | 1012.5 |
| 20260504202903 | 82 | 189 | 1.7 | 10.4 | 0.00 | 0.00 | 0.00 | 21 | 1012.5 |
| 20260504202405 | 83 | 241 | 5.2 | 10.4 | 0.00 | 0.00 | 0.00 | 20 | 1012.7 |
| 20260504201903 | 83 | 217 | 0.9 | 7.8 | 0.00 | 0.00 | 0.00 | 21 | 1012.4 |
| 20260504201404 | 82 | 271 | 1.7 | 7.8 | 0.00 | 0.00 | 0.00 | 21 | 1012.5 |
| 20260504200903 | 83 | 255 | 0.9 | 2.6 | 0.00 | 0.00 | 0.00 | 20 | 1012.6 |
| 20260504200404 | 82 | 315 | 0.9 | 5.2 | 0.00 | 0.00 | 0.00 | 19 | 1012.5 |
| 20260504195904 | 82 | 248 | 1.7 | 8.7 | 0.00 | 0.00 | 0.00 | 19 | 1012.5 |
| 20260504195404 | 82 | 254 | 1.7 | 8.7 | 0.00 | 0.00 | 0.00 | 19 | 1012.7 |
| 20260504194903 | 82 | 231 | 4.3 | 8.7 | 0.00 | 0.00 | 0.00 | 18 | 1012.8 |
| 20260504194403 | 81 | 240 | 2.6 | 7.8 | 0.00 | 0.00 | 0.00 | 18 | 1012.7 |
| 20260504193903 | 81 | 209 | 1.7 | 5.2 | 0.00 | 0.00 | 0.00 | 19 | 1012.6 |
| 20260504193404 | 81 | 205 | 1.7 | 6.1 | 0.00 | 0.00 | 0.00 | 19 | 1012.6 |
| 20260504192904 | 81 | 178 | 1.7 | 7.0 | 0.00 | 0.00 | 0.00 | 19 | 1012.5 |
| 20260504192405 | 81 | 197 | 1.7 | 7.0 | 0.00 | 0.00 | 0.00 | 19 | 1012.4 |
| 20260504191903 | 80 | 109 | 0.9 | 7.8 | 0.00 | 0.00 | 0.00 | 20 | 1012.4 |
| 20260504191403 | 81 | 113 | 1.7 | 7.8 | 0.00 | 0.00 | 0.00 | 20 | 1012.5 |
| 20260504190904 | 81 | 192 | 1.7 | 7.8 | 0.00 | 0.00 | 0.00 | 20 | 1012.5 |
| 20260504190403 | 81 | 197 | 2.6 | 7.8 | 0.00 | 0.00 | 0.00 | 20 | 1012.5 |
| 20260504184904 | 81 | 228 | 1.7 | 7.0 | 0.00 | 0.00 | 0.00 | 20 | 1012.6 |
| 20260504184404 | 81 | 245 | 2.6 | 10.4 | 0.00 | 0.00 | 0.00 | 20 | 1012.8 |
| 20260504183904 | 81 | 219 | 4.3 | 10.4 | 0.00 | 0.00 | 0.00 | 20 | 1012.9 |
| 20260504183404 | 82 | 216 | 3.5 | 6.1 | 0.00 | 0.00 | 0.00 | 20 | 1013.0 |
| 20260504182904 | 81 | 229 | 2.6 | 6.1 | 0.00 | 0.00 | 0.00 | 20 | 1013.1 |
| 20260504182403 | 81 | 164 | 1.7 | 6.1 | 0.00 | 0.00 | 0.00 | 21 | 1013.3 |
| 20260504181904 | 80 | 207 | 2.6 | 6.1 | 0.00 | 0.00 | 0.00 | 21 | 1013.4 |
| 20260504181404 | 80 | 188 | 1.7 | 7.0 | 0.00 | 0.00 | 0.00 | 22 | 1013.4 |
| 20260504180904 | 79 | 197 | 2.6 | 7.0 | 0.00 | 0.00 | 0.00 | 22 | 1013.3 |
| 20260504180404 | 80 | 205 | 3.5 | 7.0 | 0.00 | 0.00 | 0.00 | 22 | 1013.4 |
| 20260504175904 | 80 | 213 | 2.6 | 7.8 | 0.00 | 0.00 | 0.00 | 21 | 1013.4 |
| 20260504175405 | 80 | 226 | 2.6 | 7.8 | 0.00 | 0.00 | 0.00 | 21 | 1013.4 |
| 20260504174404 | 80 | 219 | 2.6 | 8.7 | 0.00 | 0.00 | 0.00 | 21 | 1013.2 |
| 20260504173404 | 80 | 240 | 4.3 | 10.4 | 0.00 | 0.00 | 0.00 | 23 | 1013.3 |
| 20260504172903 | 80 | 227 | 5.2 | 8.7 | 0.00 | 0.00 | 0.00 | 23 | 1013.4 |
| 20260504172403 | 80 | 213 | 3.5 | 8.7 | 0.00 | 0.00 | 0.00 | 23 | 1013.4 |
| 20260504171904 | 80 | 196 | 1.7 | 7.8 | 0.00 | 0.00 | 0.00 | 23 | 1013.4 |
| 20260504171405 | 80 | 236 | 4.3 | 7.8 | 0.00 | 0.00 | 0.00 | 22 | 1013.4 |
| 20260504170903 | 79 | 145 | 2.6 | 5.2 | 0.00 | 0.00 | 0.00 | 25 | 1013.4 |
| 20260504170404 | 80 | 168 | 1.7 | 7.0 | 0.00 | 0.00 | 0.00 | 25 | 1013.4 |
| 20260504150404 | 75 | 117 | 2.6 | 7.8 | 0.00 | 0.00 | 0.00 | 31 | 1013.3 |
| 20260504140903 | 72 | 166 | 0.9 | 5.2 | 0.00 | 0.00 | 0.00 | 33 | 1013.2 |
| 20260504130404 | 70 | 117 | 1.7 | 2.6 | 0.00 | 0.00 | 0.00 | 34 | 1012.4 |
| 20260504110404 | 71 | 101 | 0.0 | 1.7 | 0.00 | 0.00 | 0.00 | 34 | 1011.7 |